EW9119 Weather Reports


time (UTC)temp
C
wind
direction
speed
KPH
gust
KPH
rain 1hr
cm
rain 24hr
cm
rain mn
cm
humidity
%
barometer
mb
20260507134541 17 23 0.0 0.0 0.05 0.41 0.18 1 1007.5
20260507133036 17 308 0.0 0.0 0.08 0.41 0.18 1 1007.3
20260507131550 17 11 0.0 0.0 0.08 0.38 0.15 1 1007.3
20260507130029 17 331 0.0 0.0 0.10 0.38 0.15 1 1008.0
20260507124524 17 28 0.0 0.0 0.08 0.36 0.13 1 1008.6
20260507123023 17 67 0.0 0.0 0.05 0.33 0.10 1 1008.4
20260507121522 17 46 0.0 0.0 0.05 0.30 0.08 1 1008.2
20260507120033 17 122 0.0 0.0 0.03 0.28 0.05 1 1008.2
20260507114514 17 98 0.0 0.0 0.03 0.28 0.05 1 1008.3
20260507113010 16 66 0.0 0.0 0.03 0.28 0.05 1 1008.1
20260507111507 16 11 0.0 0.0 0.00 0.25 0.03 1 1007.8
20260507110002 16 11 0.0 0.0 0.00 0.25 0.03 1 1007.9
20260507104557 16 11 0.0 0.0 0.00 0.25 0.03 1 1007.8
20260507103054 16 11 0.0 0.0 0.00 0.25 0.03 1 1007.8
20260507101557 16 315 0.0 0.0 0.00 0.25 0.03 1 1007.7
20260507100045 16 316 0.0 0.0 0.00 0.25 0.03 1 1007.7
20260507094541 17 316 0.0 0.0 0.00 0.25 0.03 1 1007.6
20260507093037 17 316 0.0 0.0 0.00 0.25 0.03 1 1007.6
20260507091531 17 316 0.0 0.0 0.00 0.25 0.03 1 1007.8
20260507090027 17 316 0.0 0.0 0.00 0.25 0.03 1 1008.1
20260507084523 17 316 0.0 0.0 0.00 0.25 0.03 1 1007.9
20260507083019 17 316 0.0 0.0 0.00 0.25 0.03 1 1007.6
20260507081532 17 316 0.0 0.0 0.00 0.25 0.03 1 1007.7
20260507080012 17 316 0.0 0.0 0.00 0.25 0.03 1 1007.7
20260507074521 17 316 0.0 0.0 0.00 0.25 0.03 1 1007.5
20260507073105 17 316 0.0 0.0 0.00 0.25 0.03 1 1007.8
20260507071502 17 36 0.0 0.0 0.00 0.25 0.03 1 1007.5
20260507070058 17 36 0.0 0.0 0.00 0.25 0.03 1 1008.2
20260507064555 17 35 0.0 0.0 0.00 0.25 0.03 1 1008.3
20260507063050 17 35 0.0 0.0 0.00 0.25 0.03 1 1008.5
20260507061546 17 35 0.0 0.0 0.03 0.25 0.03 1 1008.7
20260507060046 17 35 0.0 0.0 0.03 0.25 0.03 1 1009.4
20260507054547 17 35 0.0 0.0 0.03 0.25 0.03 1 1009.7
20260507053035 17 35 0.0 0.0 0.03 0.25 0.03 1 1009.8
20260507051529 17 35 0.0 0.0 0.00 0.23 0.00 1 1009.8
20260507050027 17 95 0.0 0.0 0.00 0.23 0.00 1 1009.9
20260507044520 17 96 0.0 0.0 0.00 0.23 0.00 1 1010.1
20260507043016 18 96 0.0 0.0 0.00 0.23 0.00 1 1009.7
20260507041512 18 98 0.0 0.0 0.05 0.23 0.00 1 1009.6
20260507040008 18 99 0.0 0.0 0.08 0.23 0.00 1 1009.5
20260507034503 18 124 0.0 0.0 0.10 0.23 0.23 1 1009.1
20260507033105 18 227 0.0 0.0 0.10 0.23 0.23 1 1009.0
20260507031606 18 295 0.0 0.0 0.05 0.18 0.18 1 1010.8
20260507030055 18 292 0.0 0.0 0.05 0.15 0.15 1 1010.6
20260507024547 18 317 0.0 0.0 0.05 0.13 0.13 1 1010.2
20260507023043 18 230 0.0 0.0 0.05 0.13 0.13 1 1009.7
20260507021543 18 230 0.0 0.0 0.08 0.13 0.13 1 1009.7
20260507020047 18 230 0.0 0.0 0.05 0.10 0.10 1 1009.5
20260507014547 19 230 0.0 0.0 0.03 0.08 0.08 1 1009.3
20260507013033 19 230 0.0 0.0 0.03 0.08 0.08 1 1008.8
20260507011532 19 230 0.0 0.0 0.05 0.05 0.05 1 1009.0
20260507010029 19 230 0.0 0.0 0.05 0.05 0.05 1 1009.2
20260507004523 20 230 0.0 0.0 0.05 0.05 0.05 1 1009.2
20260507003019 20 230 0.0 0.0 0.05 0.05 0.05 10 1009.2
20260507001521 20 230 0.0 0.0 0.00 0.00 0.00 17 1009.0
20260507000009 20 230 0.0 0.0 0.00 0.00 0.00 22 1009.1
20260506234503 20 24 0.0 0.0 0.00 0.00 0.00 30 1008.4
20260506233124 21 344 0.0 0.0 0.00 0.00 0.00 37 1008.7
20260506231555 21 355 0.0 0.0 0.00 0.00 0.00 40 1008.8
20260506230052 21 20 0.0 0.0 0.00 0.00 0.00 42 1009.2
20260506224546 21 27 0.0 0.0 0.00 0.00 0.00 45 1009.4
20260506223041 21 273 0.0 0.0 0.00 0.00 0.00 47 1009.6
20260506221538 21 313 0.0 0.0 0.00 0.00 0.00 50 1009.4
20260506220036 22 337 0.0 0.0 0.00 0.00 0.00 54 1009.6
20260506214528 22 12 0.0 0.0 0.00 0.00 0.00 56 1009.2
20260506213024 22 336 0.0 0.0 0.00 0.00 0.00 55 1008.6
20260506211521 22 104 0.0 4.8 0.00 0.00 0.00 57 1008.5
20260506210015 22 319 0.0 0.0 0.00 0.00 0.00 56 1008.7
20260506204512 22 325 0.0 0.0 0.00 0.00 0.00 59 1008.9
20260506203009 22 140 0.0 0.0 0.00 0.00 0.00 56 1008.9
20260506201502 22 254 0.0 0.0 0.00 0.00 0.00 57 1009.3
20260506200058 22 259 0.0 0.0 0.00 0.00 0.00 57 1009.1
20260506194614 21 298 0.0 0.0 0.00 0.00 0.00 59 1009.2
20260506193057 21 183 0.0 0.0 0.00 0.00 0.00 50 1009.4
20260506191545 21 38 0.0 0.0 0.00 0.00 0.00 51 1009.4
20260506190041 21 87 0.0 0.0 0.00 0.00 0.00 32 1008.8
20260506184536 20 67 0.0 0.0 0.00 0.00 0.00 11 1009.2
20260506183031 20 103 0.0 0.0 0.00 0.00 0.00 1 1009.6
20260506181527 19 94 0.0 0.0 0.00 0.00 0.00 6 1010.0
20260506180024 20 339 0.0 0.0 0.00 0.00 0.00 10 1010.7
20260506174520 20 324 0.0 0.0 0.00 0.00 0.00 26 1011.1
20260506173020 20 342 0.0 0.0 0.00 0.00 0.00 44 1011.4
20260506171522 20 142 0.0 0.0 0.00 0.00 0.00 37 1011.3
20260506170020 19 5 0.0 0.0 0.00 0.00 0.00 32 1011.5
20260506164515 19 167 0.0 0.0 0.00 0.00 0.00 38 1011.7
20260506163030 19 157 0.0 0.0 0.00 0.00 0.00 36 1011.5
20260506161511 19 5 0.0 0.0 0.00 0.00 0.00 34 1011.4
20260506160018 18 173 0.0 0.0 0.00 0.00 0.00 47 1011.3
20260506154509 18 220 0.0 0.0 0.00 0.00 0.00 37 1010.8
20260506153008 18 12 0.0 0.0 0.00 0.00 0.00 39 1010.9
20260506151505 18 340 0.0 0.0 0.00 0.00 0.00 49 1011.1
20260506150007 18 73 0.0 0.0 0.00 0.00 0.00 57 1011.0
20260506144502 18 70 0.0 0.0 0.00 0.00 0.00 58 1010.6
20260506143002 18 311 0.0 0.0 0.00 0.00 0.00 59 1010.9
20260506141501 18 299 0.0 0.0 0.00 0.00 0.00 60 1010.8
20260506140001 18 18 0.0 0.0 0.00 0.00 0.00 57 1010.6